Location: ????????
(55.6333°N, 37.7000°E)
Time: 03:27:46
(UTC+00:00)

Cosmos 921 Rocket - Pass Details

Date: 19 May 2025
Orbit: 564 x 622 km, 75.8° (Epoch: 14 June)

Event Time Altitude Azimuth Distance (km) Brightness Sun altitude
Exits shadow 22:57:52 10° 159° (SSE) 1,893 5.1 -11.9°
Reaches altitude 10° 22:57:58 10° 159° (SSE) 1,860 5.1 -11.9°
Maximum altitude 23:01:27 27° 101° (E) 1,111 4.5 -11.7°
Drops below altitude 10° 23:05:00 10° 43° (NE) 1,888 6.8 -11.5°
Sets 23:07:27 0° 31° (NNE) 2,799 8.5 -11.4°
